Location: Buce?
(46.1833°N, 22.9333°E)
Time: 11:59:45
(UTC+00:00)

Daily predictions for brighter satellites

Satellite Brightness Start Highest point End
(mag) Time Altitude Azimuth Time Altitude Azimuth Time Altitude Azimuth
Cosmos 1633 4.3 18:40:06 10° SE 18:42:27 17° E 18:44:48 10° NE
Cosmos 2082 Rocket 3.2 18:38:03 10° SSE 18:42:32 25° ESE 18:47:02 10° NE
Gblst 52 Del rocket 4.3 18:38:21 10° SW 18:44:03 81° SSE 18:50:28 10° ENE
Helios 1A Rocket 4.0 18:40:23 10° S 18:44:14 44° W 18:48:09 10° NNW
ERS-2 2.1 18:42:34 10° NNE 18:46:13 65° ESE 18:49:50 10° S
Cosmos 2279 Rocket 4.1 18:40:18 10° N 18:46:29 65° E 18:52:37 10° SSE
Cosmos 1833 Rocket 2.8 18:41:14 10° S 18:46:41 53° ESE 18:52:11 10° NE
Cosmos 2221 3.1 18:43:11 10° N 18:47:15 41° ENE 18:51:20 10° SSE
ISS -2.0 18:44:18 10° WNW 18:47:22 31° N 18:50:25 10° ENE
Gbstr 26 Del rocket 4.2 18:45:24 10° WNW 18:48:51 35° N 18:52:27 10° ENE
NOSS 3-4 (A) 3.3 18:43:37 10° SSW 18:49:24 77° SE 18:55:38 10° NE
NOSS 3-4 (C) 3.3 18:43:44 10° SSW 18:49:30 76° SE 18:55:44 10° NE
SPOT 3 Rocket 3.8 18:47:17 10° SSE 18:52:25 59° ENE 18:57:34 10° N
USA 307 4.0 18:48:50 10° WNW 18:52:47 37° SW 18:56:42 10° SSE
Terra 3.7 18:51:24 10° E 18:54:15 16° ENE 18:57:05 10° NNE
ATLAS 2AS CENTAUR R/B 3.1 18:50:47 10° SSW 18:58:25 55° ESE 19:05:56 10° NE
Cosmos 773 Rocket 4.5 18:53:38 10° S 18:58:26 39° ESE 19:03:14 10° NE
Cosmos 1242 Rocket 2.5 18:55:55 10° NNW 18:59:33 87° W 19:03:07 10° S
Cosmos 1125 Rocket 4.3 18:54:48 10° NNW 18:59:57 52° WSW 19:05:05 10° S
Cosmos 1953 Rocket 4.1 19:01:07 10° SSW 19:05:34 65° W 19:10:04 10° N
IGS 5A 3.5 19:03:02 10° S 19:07:11 81° WSW 19:11:21 10° NNW
USA 276 3.3 19:04:21 10° W 19:07:24 43° N 19:10:26 10° ENE
COSMOS 2406 3.2 19:02:42 10° SSW 19:08:20 72° ESE 19:14:02 10° NNE
Cosmos 2369 3.9 19:02:52 10° NNW 19:08:30 62° ENE 19:13:36 12° SE
USA 308 4.4 19:05:53 10° WNW 19:09:31 28° SW 19:13:08 10° SSE
Cosmos 1606 2.9 19:09:23 10° N 19:13:05 52° ENE 19:16:16 13° SSE
USA 267 3.9 19:11:00 10° ENE 19:16:45 32° SE 19:22:27 10° S
Nadezhda 4 Rocket 4.2 19:11:12 10° SSE 19:17:07 52° E 19:23:07 10° NNE
ATLAS 3B R/B 3.3 19:10:22 10° NNW 19:17:14 51° NE 19:23:48 12° ESE
CENTAUR R/B 4.3 19:11:08 10° NW 19:18:41 39° WSW 19:26:42 10° S
Landsat 7 4.0 19:14:28 10° S 19:19:13 73° WSW 19:23:59 10° NNW
ERBS 2.6 19:16:32 10° NW 19:19:44 56° NE 19:22:06 16° ESE
Cosmos 1980 Rocket 2.5 19:14:55 10° NNW 19:20:28 57° ENE 19:25:02 15° SE
Cosmos 2151 3.9 19:21:09 15° SE 19:23:55 30° E 19:27:39 10° NNE
ERS-1 Rocket 3.7 19:20:53 15° SE 19:24:43 40° ENE 19:29:23 10° N
GP-B 4.2 19:21:11 10° NNE 19:25:04 29° E 19:27:38 17° SE
Spot 2 Rocket 3.7 19:20:48 14° SE 19:25:08 57° ENE 19:30:09 10° N
Cosmos 1842 Rocket 3.7 19:21:41 10° N 19:26:11 83° W 19:30:37 10° S
Cosmos 2322 Rocket 4.1 19:23:12 10° N 19:27:11 19° NE 19:31:08 10° E
Cosmos 2058 3.6 19:27:57 10° SSW 19:32:02 56° WNW 19:36:11 10° N
Cosmos 1538 Rocket 4.4 19:32:44 10° S 19:37:36 43° ESE 19:42:30 10° NE
Cosmos 1825 4.2 19:35:56 10° SW 19:39:12 28° WNW 19:42:31 10° NNW
Cosmos 1076 Rocket 3.4 19:36:05 10° S 19:40:24 79° E 19:44:47 10° NNE
Cosmos 2098 Rocket 2.0 19:41:30 17° S 19:43:37 87° ESE 19:46:51 10° N
Resurs 01 Rocket 3.0 19:39:44 10° SSW 19:43:48 35° W 19:47:54 10° NNW
Meteor 2-8 Rocket 4.4 19:38:31 10° N 19:44:43 87° E 19:49:55 15° S
SPOT 1/Viking Rocket 4.0 19:45:54 12° S 19:50:43 59° W 19:55:53 10° NNW
USA 234 4.0 19:45:11 10° E 19:51:25 49° NNE 19:57:40 10° NW
SL-16 R/B 3.3 19:47:26 10° NNW 19:52:32 33° NE 19:56:17 16° ESE
BREEZE-M DEB (TANK) 3.4 19:45:55 10° W 19:54:53 60° N 19:57:56 10° ENE
RESURS DK-1 2.3 19:57:19 10° SSW 20:01:29 88° WNW 20:05:40 10° NNE
BREEZE-M DEB (TANK) 2.7 20:00:02 10° WNW 20:03:14 77° SSW 20:09:03 18° ESE
Cosmos 44 Rocket 3.8 19:58:10 10° SW 20:03:20 67° NW 20:08:35 10° NNE
Cosmos 1271 Rocket 3.1 20:02:10 10° N 20:06:04 53° ENE 20:07:34 33° SE
SPOT 5 2.6 20:07:14 26° S 20:09:36 83° WSW 20:13:58 10° NNW
ARIANE 5 R/B 2.9 20:08:22 22° S 20:11:11 64° WSW 20:15:38 10° NNW
Meteor 1-26 Rocket 4.4 20:05:34 10° N 20:11:35 71° ENE 20:14:58 26° SSE
Cosmos 304 Rocket 4.0 20:07:28 10° NNW 20:12:14 60° ENE 20:14:26 30° SE
Cosmos 1933 3.3 20:11:57 10° N 20:16:01 85° W 20:17:46 33° S
Cosmos 1633 4.2 20:13:39 10° SW 20:16:55 33° WNW 20:20:14 10° N
Cosmos 1697 Rocket 4.2 20:13:20 10° NW 20:18:09 29° WSW 20:22:30 12° SSW
Cosmos 2195 Rocket 4.4 20:18:37 17° S 20:23:28 88° W 20:29:37 10° N
Cosmos 923 Rocket 4.3 20:22:07 30° SSE 20:24:22 49° ESE 20:29:31 10° NNE
ISS -3.2 20:21:18 10° WNW 20:24:38 54° NNE 20:25:51 33° E
Cosmos 2278 4.0 20:20:08 10° NNW 20:25:41 59° WSW 20:28:45 26° S
Cosmos 2082 Rocket 2.9 20:20:43 10° SW 20:26:13 55° WNW 20:31:48 10° NNE
Cosmos 371 Rocket 3.7 20:23:31 10° NNW 20:28:14 56° WSW 20:30:30 29° S
Terra 1.9 20:29:10 31° S 20:31:25 73° WSW 20:36:12 10° NNW
Cosmos 2333 Rocket 4.2 20:31:30 10° N 20:35:31 19° NE 20:39:31 10° E
Gbstr 26 Del rocket 3.4 20:32:23 10° WNW 20:36:08 54° NNE 20:38:22 24° E
Cosmos 1092 Rocket 4.2 20:30:54 15° SSW 20:36:11 69° W 20:42:31 10° N
BREEZE-M DEB (TANK) 4.1 20:32:13 10° WSW 20:36:41 89° NNW 20:56:00 10° ENE
Cosmos 2056 Rocket 4.5 20:31:44 10° N 20:36:46 38° ENE 20:39:04 26° ESE
Cosmos 1515 Rocket 4.4 20:36:50 10° N 20:40:59 36° ENE 20:41:57 32° ESE
Cosmos 2360 Rocket 3.2 20:38:03 10° NNW 20:43:14 36° NE 20:46:03 23° ESE
USA 276 3.0 20:40:53 10° WNW 20:43:57 46° N 20:44:46 36° NE
Cosmos 1809 Rocket 4.4 20:44:40 30° S 20:47:54 80° E 20:54:05 10° N
ATLAS 2AS CENTAUR R/B 4.0 20:42:03 10° WSW 20:49:37 48° NW 20:57:01 10° NNE
Cosmos 1862 3.5 20:49:37 50° ESE 20:49:52 51° E 20:53:46 10° NNE
ALOS 2 4.3 20:49:18 19° E 20:50:31 22° ENE 20:53:53 10° NNE
Cosmos 1766 Rocket 3.5 20:50:20 43° SSW 20:51:46 87° WNW 20:56:12 10° N
Meteor 2-3 Rocket 4.3 20:47:27 15° SSW 20:51:57 55° WNW 20:57:34 10° N
ERBS 4.5 20:53:21 10° W 20:54:49 16° WSW 20:54:49 16° WSW
Cosmos 2026 Rocket 4.4 20:51:04 18° SSW 20:55:53 61° WNW 21:02:09 10° N
Cosmos 1371 Rocket 4.3 20:52:29 10° NNW 20:57:49 60° ENE 20:59:38 39° SE
Cosmos 1812 2.5 20:54:56 10° N 20:58:49 85° E 20:59:11 71° SSE
Cosmos 2112 Rocket 4.0 20:57:39 43° SSE 20:59:13 63° ESE 21:04:28 10° NNE
Cosmos 1782 3.6 20:56:02 10° NNW 20:59:53 45° W 21:00:54 37° SW
USA 267 3.3 20:53:37 10° NE 21:00:12 84° NW 21:06:45 10° WSW
Cosmos 1680 Rocket 3.4 20:59:27 40° S 21:01:23 76° ESE 21:06:41 10° NNE
ERS-1 Rocket 4.5 21:00:53 18° SW 21:03:36 28° W 21:07:56 10° NW
Cosmos 1980 Rocket 3.8 20:59:39 10° NW 21:04:02 24° WSW 21:06:48 17° SW
Cosmos 1328 Rocket 3.6 21:00:25 10° NNW 21:04:52 73° W 21:05:51 52° SSW
ATLAS 3B R/B 3.4 21:01:14 10° NW 21:07:56 45° WSW 21:11:03 30° SSW
SL-27 R/B 4.0 21:09:41 27° ENE 21:09:41 27° ENE 21:11:50 10° NE
Cosmos 2322 Rocket 2.1 21:06:22 10° NNW 21:12:03 90° W 21:13:47 47° SSE
Meteor 2-21 Rocket 4.4 21:11:32 39° S 21:14:01 82° E 21:20:15 10° N
Cosmos 2315 Rocket 4.5 21:09:52 10° N 21:15:59 49° ENE 21:18:11 35° SE
Cosmos 1151 Rocket 3.9 21:12:10 10° NNW 21:16:15 41° W 21:17:20 34° SW
Meteor 2-6 Rocket 4.2 21:14:44 10° NNW 21:20:10 71° W 21:21:47 45° SSW
Okean 3 Rocket 4.5 21:20:47 30° SW 21:22:28 44° WNW 21:26:47 10° N
Cosmos 2237 4.1 21:25:14 10° NNW 21:30:58 85° WSW 21:32:28 51° SSE
Meteor 1-27 Rocket 3.8 21:25:49 10° N 21:31:25 69° ENE 21:32:53 49° SE
COSMOS 2428 4.1 21:28:19 10° NNW 21:33:23 31° NE 21:36:24 20° E
USA 234 3.2 21:31:41 40° SE 21:34:15 74° SW 21:40:49 10° NW
Cosmos 1655 Rocket 4.0 21:33:14 40° SSW 21:35:42 83° W 21:42:08 10° N
SL-16 R/B 2.8 21:31:24 10° NW 21:36:48 46° WSW 21:38:08 39° SW
Cosmos 1500 Rocket 3.4 21:37:07 76° SE 21:37:20 79° E 21:41:46 10° NNE
Cosmos 1624 Rocket 4.0 21:34:55 10° NNW 21:40:05 69° WSW 21:41:01 56° SSW
Cosmos 2219 Rocket 3.1 21:35:13 10° NNW 21:40:30 40° NE 21:42:49 28° ESE
Cosmos 2266 Rocket 3.9 21:39:17 44° SSW 21:41:22 84° W 21:47:35 10° N
Cosmos 292 Rocket 3.6 21:39:09 10° NNW 21:43:56 78° ENE 21:44:32 66° SE
Spot 4 3.9 21:45:55 58° SW 21:46:35 66° WSW 21:51:23 10° NNW
COSMOS 2455 3.3 21:52:02 40° ESE 21:52:25 41° ESE 21:58:00 10° NE
Cosmos 2228 Rocket 2.9 21:48:05 10° N 21:52:31 82° E 21:52:40 80° ESE
Cosmos 1743 Rocket 3.6 21:54:56 65° WSW 21:55:20 70° W 21:59:49 10° N
Cosmos 1420 Rocket 3.9 21:50:06 10° NNW 21:55:26 77° WSW 21:56:17 62° S
ISS -1.0 21:58:18 10° WNW 21:58:48 13° W 21:58:48 13° W
Meteor 1-20 Rocket 4.2 22:05:26 56° SE 22:06:20 66° E 22:11:56 10° NNE
Cosmos 972 Rocket 4.0 22:07:27 62° S 22:08:22 78° ESE 22:13:33 10° NNE
Cosmos 1452 Rocket 3.5 22:04:39 10° NNW 22:09:55 76° ENE 22:10:51 60° SE
Cosmos 1515 4.2 22:07:24 10° N 22:10:39 54° NE 22:10:39 54° NE
Cosmos 1666 Rocket 4.1 22:12:16 45° E 22:12:16 45° E 22:16:20 10° NNE
Cosmos 1633 Rocket 3.9 22:12:50 38° E 22:12:50 38° E 22:16:43 10° NNE
NOSS 3-1 (C) 4.1 22:09:58 10° NW 22:17:29 85° NE 22:21:57 32° SE
Sich 1 2.9 22:17:56 89° NNW 22:17:56 89° NNW 22:22:19 10° N
NOSS 2-1 (E) 4.0 22:19:06 43° NNW 22:19:06 43° NNW 22:21:57 10° NNE
Cosmos 2333 Rocket 2.1 22:14:55 10° NNW 22:20:36 89° WSW 22:21:43 60° SSE
Cosmos 1833 4.4 22:19:20 41° SW 22:21:20 67° WNW 22:27:06 10° NNE
ATLAS 5 CENTAUR R/B 3.3 22:16:53 10° NNW 22:21:59 41° NE 22:27:15 13° ESE
Nadezhda 2 Rocket 4.4 22:21:59 53° S 22:23:39 85° E 22:30:04 10° N
Okean 1 3.6 22:20:28 10° N 22:24:11 62° NE 22:24:11 62° NE
Geosat 4.0 22:25:11 58° SE 22:26:09 77° ENE 22:31:11 10° NNW
ALOS 2 3.3 22:26:42 42° W 22:26:42 42° W 22:30:47 10° NNW
Cosmos 2360 Rocket 2.8 22:22:03 10° NW 22:27:16 40° WSW 22:27:47 39° WSW
USA 229 DEB 4.1 22:21:30 10° NW 22:28:47 68° NE 22:33:46 24° SE
USA 229 4.1 22:21:36 10° NW 22:28:53 68° NE 22:33:55 23° SE
Meteor 1-25 Rocket 4.1 22:27:53 60° SSW 22:29:00 87° W 22:34:38 10° N
Cosmos 1862 Rocket 3.8 22:30:35 10° N 22:34:54 56° ENE 22:35:02 56° E
Cosmos 2322 3.6 22:30:22 10° NNW 22:36:04 72° WSW 22:37:00 60° S
Resurs 1-4 Rocket 4.3 22:34:17 10° ENE 22:36:32 13° E 22:38:04 11° ESE
Cosmos 1666 4.1 22:37:23 30° ENE 22:37:23 30° ENE 22:40:18 10° NNE
Lacrosse 5 4.1 22:42:01 12° ESE 22:42:01 12° ESE 22:42:57 10° E
Meteor 1-19 Rocket 4.1 22:35:34 10° NNW 22:41:19 85° W 22:42:21 61° S
Cosmos 1110 Rocket 4.0 22:36:56 10° NNW 22:42:18 75° ENE 22:43:21 57° SE
USA 267 4.5 22:36:45 10° NE 22:42:47 41° NNW 22:48:49 10° W
Cosmos 1244 Rocket 4.4 22:42:07 51° SSW 22:43:44 75° W 22:49:57 10° N
Meteor 1-14 Rocket 4.3 22:43:44 51° SE 22:44:41 59° E 22:50:10 10° NNE
Cosmos 1707 Rocket 3.7 22:40:53 10° NNW 22:45:02 62° W 22:45:02 62° W
NOSS 3-1 (A) 4.1 22:41:41 10° NW 22:49:12 84° NE 22:54:38 26° SE
Cosmos 2297 Rocket 3.3 22:49:53 28° ESE 22:50:34 28° ESE 22:55:20 10° NE
COSMOS 2487 3.7 22:52:30 37° NNW 22:52:30 37° NNW 22:55:04 10° N
Cosmos 1331 Rocket 3.9 22:47:22 10° NNW 22:52:40 83° ENE 22:53:34 62° SE
Cosmos 2237 Rocket 3.0 22:48:59 10° NNW 22:54:28 46° ENE 22:57:31 24° ESE
Cosmos 2322 Rocket 4.2 22:52:29 10° WNW 22:55:14 14° W 22:55:35 14° W
Cosmos 2285 Rocket 4.2 22:51:38 10° NNW 22:57:43 53° WSW 22:58:54 46° SW
Cosmos 2227 Rocket 3.5 23:00:28 25° ESE 23:01:22 26° ESE 23:05:58 10° NE
Meteor 2-4 Rocket 3.7 23:04:31 10° NNW 23:10:31 86° W 23:12:00 53° S
EO 1 Del DPAF 3.5 23:07:53 10° NNE 23:11:08 60° NE 23:11:08 60° NE
Cosmos 2242 Rocket 4.1 23:07:47 10° N 23:12:05 48° ENE 23:12:44 44° ESE
ASTEX 1 4.3 23:12:12 32° ESE 23:13:41 40° ENE 23:18:15 10° N
CZ-2D R/B 3.6 23:09:38 10° NE 23:14:07 26° E 23:15:47 23° ESE
PSLV R/B 4.1 23:11:44 10° N 23:16:24 56° WNW 23:17:06 51° WSW
ADEOS II 4.4 23:14:57 10° ENE 23:17:32 14° E 23:20:06 10° ESE
SL-16 R/B 4.0 23:12:56 10° N 23:17:49 28° NE 23:22:39 10° ESE
COSMOS 2428 3.0 23:12:24 10° NW 23:17:52 48° WSW 23:18:24 47° SW
Cosmos 1500 4.1 23:19:16 39° WNW 23:19:16 39° WNW 23:22:38 10° N
Cosmos 1269 Rocket 4.2 23:20:05 52° SSE 23:20:57 60° ESE 23:26:09 10° NNE
Cosmos 2219 Rocket 2.9 23:19:20 10° NW 23:24:22 35° WSW 23:24:30 35° WSW
Meteor 1-5 Rocket 4.2 23:25:24 54° SSW 23:26:46 83° W 23:32:35 10° N
Meteor 2-17 Rocket 4.3 23:27:19 50° SSW 23:29:03 84° W 23:35:09 10° N
Aureole 2 Rocket 4.2 23:27:06 46° S 23:29:18 73° ESE 23:38:59 10° NNE
Thor Agena Rocket 4.4 23:26:58 10° N 23:31:38 38° WNW 23:32:59 32° W
Cosmos 1869 Rocket 4.2 23:34:00 42° ESE 23:34:44 46° E 23:39:02 10° NNE
COSMOS 2455 3.8 23:35:08 24° WSW 23:38:21 42° NW 23:44:04 10° NNE
Cosmos 1470 Rocket 4.1 23:40:37 42° W 23:40:54 43° WNW 23:45:04 10° N
Cosmos 1709 Rocket 3.9 23:38:52 45° S 23:41:00 89° WNW 23:47:24 10° N
NOSS 0 Rocket 4.0 23:35:11 10° NW 23:41:18 58° WSW 23:42:50 46° SSW
Cosmos 1302 Rocket 3.9 23:36:38 10° NNW 23:41:51 75° WSW 23:42:56 55° S
Cosmos 1743 3.8 23:44:29 34° ESE 23:44:53 35° E 23:48:24 10° NNE
Cosmos 1340 Rocket 2.8 23:45:19 69° WNW 23:45:19 69° WNW 23:49:12 10° N
APEX 4.3 23:44:43 45° SW 23:46:27 70° WNW 23:52:53 10° NNE
Cosmos 1933 Rocket 3.8 23:47:27 54° WSW 23:47:56 57° WNW 23:52:21 10° N
Timation 2 Rocket 4.4 23:46:19 36° SSE 23:48:13 48° ESE 23:54:01 10° NE
Cosmos 2219 3.3 23:46:58 46° S 23:48:36 67° ESE 23:54:20 10° NNE
Cosmos 1745 Rocket 4.5 23:46:52 35° WSW 23:48:57 48° WNW 23:55:00 10° N
Helios 1A 2.8 23:50:54 70° SSW 23:51:15 75° WSW 23:55:30 10° NNW
Cosmos 1066 Rocket 4.3 23:45:56 10° N 23:51:50 86° E 23:54:12 38° SSE
Okean 3 3.5 23:48:34 10° N 23:52:53 74° E 23:53:41 56° SE
Okean 1-7 3.0 23:49:14 10° NNW 23:53:26 62° W 23:53:38 61° WSW
